GEFSSGP_prec_meanprecacc_138.txt.gz
Total_Precipitation_Accumulation
0.99 1.15 1.71 2.28 2.47 1.85 1.45 1.03 0.66 0.58 0.57 0.38 0.25 0.23 0.35 0.63 0.94 1.17 0.93 0.75 0.53 0.45 0.38 0.52 0.76 0.73 0.65 0.67 0.74 0.83 0.84 0.93 0.81 0.72 0.65 0.55 0.48 0.48 0.48 0.40 0.39 0.42 0.36 0.32 0.38 0.48 0.50 0.53 0.54
0.97 1.73 2.40 2.94 2.41 1.57 1.37 0.99 0.77 0.62 0.42 0.32 0.22 0.20 0.26 0.24 0.22 0.44 0.91 0.97 0.54 0.46 0.42 0.55 0.78 0.75 0.75 0.78 0.80 0.85 0.89 0.98 0.89 0.76 0.64 0.56 0.53 0.51 0.52 0.62 0.67 0.54 0.39 0.36 0.39 0.53 0.56 0.53 0.57
1.18 2.25 3.12 2.85 1.85 1.41 1.42 1.00 0.72 0.49 0.33 0.29 0.23 0.18 0.25 0.29 0.31 0.62 0.99 0.82 0.57 0.47 0.50 0.72 0.91 0.81 0.77 0.82 0.92 0.94 0.99 1.01 0.91 0.73 0.56 0.55 0.60 0.68 0.79 0.83 0.74 0.55 0.45 0.44 0.47 0.55 0.59 0.53 0.49
1.53 2.56 2.67 2.05 1.66 1.30 1.12 0.85 0.56 0.52 0.35 0.19 0.17 0.23 0.23 0.28 0.37 0.66 0.76 0.69 0.61 0.50 0.44 0.58 0.81 0.80 0.81 0.86 0.97 0.94 0.96 1.02 0.97 0.78 0.63 0.59 0.62 0.66 0.74 0.81 0.72 0.57 0.49 0.49 0.54 0.59 0.61 0.57 0.52
1.88 2.36 2.28 1.84 1.53 1.14 0.81 0.65 0.49 0.49 0.36 0.19 0.14 0.31 0.45 0.48 0.43 0.57 0.74 0.75 0.60 0.51 0.44 0.47 0.66 0.67 0.71 0.85 0.98 0.98 1.00 1.03 0.99 0.79 0.70 0.71 0.68 0.66 0.73 0.75 0.71 0.58 0.52 0.52 0.58 0.62 0.66 0.62 0.57
2.12 2.11 2.20 2.02 1.66 1.25 0.87 0.62 0.45 0.43 0.32 0.21 0.21 0.37 0.51 0.59 0.55 0.60 0.62 0.66 0.63 0.61 0.51 0.45 0.61 0.67 0.67 0.76 0.84 0.90 0.96 1.01 0.96 0.77 0.71 0.71 0.71 0.68 0.69 0.73 0.73 0.64 0.64 0.64 0.64 0.62 0.65 0.67 0.62
2.02 1.95 1.90 1.69 1.67 1.57 1.01 0.62 0.52 0.45 0.40 0.31 0.27 0.44 0.52 0.63 0.50 0.61 0.65 0.64 0.70 0.68 0.63 0.55 0.56 0.62 0.73 0.82 0.87 0.89 0.93 0.96 0.99 0.87 0.80 0.78 0.71 0.61 0.59 0.61 0.64 0.66 0.73 0.71 0.65 0.62 0.60 0.62 0.63
1.58 1.56 1.43 1.44 1.53 1.50 0.86 0.48 0.38 0.34 0.31 0.21 0.23 0.42 0.51 0.54 0.48 0.57 0.64 0.64 0.64 0.66 0.65 0.60 0.61 0.69 0.69 0.75 0.94 1.01 1.04 1.07 1.10 0.97 0.85 0.81 0.68 0.58 0.58 0.53 0.56 0.64 0.77 0.83 0.77 0.70 0.66 0.65 0.68
1.47 1.57 1.59 1.67 1.46 1.17 0.64 0.45 0.34 0.25 0.24 0.21 0.19 0.26 0.32 0.37 0.47 0.55 0.65 0.65 0.65 0.61 0.60 0.58 0.63 0.74 0.80 0.77 0.87 1.14 1.17 1.21 1.18 1.04 0.94 0.83 0.64 0.56 0.58 0.54 0.70 0.72 0.76 0.84 0.87 0.86 0.79 0.73 0.68
1.58 1.62 1.64 1.38 0.94 0.80 0.60 0.48 0.37 0.27 0.28 0.25 0.22 0.28 0.35 0.43 0.53 0.58 0.62 0.63 0.64 0.65 0.60 0.56 0.56 0.61 0.70 0.75 0.87 1.03 1.01 1.02 1.01 1.16 1.07 0.94 0.89 0.76 0.49 0.55 0.76 0.89 0.92 0.88 0.85 0.93 0.81 0.65 0.50
1.26 1.25 0.97 0.94 0.70 0.55 0.52 0.42 0.35 0.37 0.40 0.27 0.27 0.33 0.40 0.49 0.55 0.59 0.62 0.60 0.62 0.59 0.55 0.49 0.46 0.45 0.51 0.64 0.81 0.91 1.01 1.11 1.07 1.03 1.04 1.01 0.89 0.70 0.57 0.61 0.63 0.69 0.76 0.69 0.72 0.71 0.56 0.48 0.49
1.09 0.90 0.69 0.67 0.57 0.50 0.47 0.40 0.32 0.32 0.35 0.26 0.25 0.33 0.41 0.46 0.52 0.55 0.57 0.56 0.51 0.51 0.53 0.47 0.39 0.38 0.38 0.46 0.55 0.66 0.80 0.92 0.96 0.81 0.77 0.85 0.87 0.76 0.63 0.63 0.62 0.62 0.67 0.75 0.78 0.77 0.66 0.58 0.56
1.21 0.94 0.72 0.63 0.58 0.52 0.44 0.40 0.32 0.28 0.28 0.27 0.30 0.40 0.42 0.46 0.53 0.57 0.48 0.45 0.43 0.47 0.53 0.50 0.42 0.40 0.38 0.41 0.43 0.44 0.63 0.80 0.91 0.92 0.80 0.77 0.79 0.77 0.71 0.59 0.62 0.57 0.60 0.66 0.70 0.72 0.72 0.74 0.72
1.03 0.88 0.79 0.70 0.59 0.44 0.41 0.36 0.30 0.30 0.29 0.25 0.26 0.34 0.38 0.44 0.49 0.51 0.47 0.44 0.42 0.45 0.53 0.54 0.52 0.51 0.46 0.40 0.40 0.43 0.51 0.63 0.72 0.87 0.88 0.82 0.75 0.71 0.74 0.69 0.70 0.71 0.69 0.69 0.68 0.67 0.76 0.79 0.76
0.74 0.84 0.81 0.68 0.56 0.45 0.42 0.44 0.34 0.36 0.34 0.29 0.27 0.29 0.35 0.39 0.41 0.41 0.41 0.40 0.42 0.43 0.46 0.46 0.47 0.54 0.54 0.52 0.51 0.51 0.59 0.62 0.69 0.76 0.77 0.84 0.74 0.68 0.73 0.76 0.77 0.79 0.79 0.79 0.80 0.80 0.85 0.81 0.80
0.77 0.95 1.04 0.75 0.61 0.57 0.57 0.53 0.36 0.39 0.36 0.34 0.32 0.32 0.32 0.36 0.38 0.37 0.37 0.36 0.39 0.38 0.38 0.43 0.42 0.49 0.57 0.63 0.66 0.70 0.73 0.77 0.84 0.81 0.77 0.77 0.73 0.70 0.79 0.81 0.84 0.91 0.83 0.80 0.87 0.92 0.96 0.91 0.90
0.98 0.93 0.84 0.73 0.56 0.54 0.55 0.47 0.36 0.36 0.33 0.33 0.30 0.31 0.28 0.30 0.34 0.37 0.36 0.34 0.35 0.36 0.37 0.41 0.45 0.51 0.57 0.63 0.73 0.83 0.91 0.99 1.13 1.10 1.05 0.99 0.87 0.88 0.95 0.99 1.02 1.05 1.07 0.99 0.88 0.90 0.96 1.03 1.02
0.96 0.63 0.51 0.48 0.48 0.43 0.45 0.38 0.34 0.34 0.26 0.26 0.27 0.26 0.23 0.25 0.29 0.34 0.36 0.35 0.36 0.35 0.37 0.41 0.48 0.57 0.68 0.84 1.06 1.28 1.36 1.53 1.75 1.69 1.54 1.36 1.19 1.16 1.26 1.24 1.19 1.26 1.34 1.35 1.14 1.17 1.12 1.05 1.10
0.60 0.46 0.39 0.37 0.36 0.35 0.31 0.27 0.22 0.23 0.19 0.18 0.19 0.19 0.19 0.16 0.19 0.24 0.27 0.28 0.26 0.26 0.29 0.36 0.41 0.51 0.63 0.86 1.19 1.62 1.84 1.97 1.99 2.01 1.90 1.70 1.48 1.49 1.65 1.61 1.59 1.60 1.57 1.53 1.47 1.59 1.52 1.25 1.16
0.48 0.43 0.37 0.33 0.30 0.28 0.20 0.16 0.14 0.12 0.10 0.12 0.12 0.14 0.17 0.16 0.14 0.13 0.16 0.17 0.16 0.15 0.18 0.27 0.34 0.42 0.57 0.85 1.17 1.52 1.88 1.97 2.00 2.01 1.97 1.83 1.71 1.72 1.75 1.95 2.05 2.02 2.10 2.08 1.89 2.02 2.02 1.67 1.41
0.41 0.43 0.39 0.35 0.33 0.25 0.19 0.16 0.12 0.08 0.08 0.09 0.10 0.11 0.15 0.15 0.14 0.12 0.10 0.11 0.11 0.12 0.13 0.19 0.24 0.39 0.67 1.01 1.33 1.53 1.82 1.95 2.02 1.98 1.99 2.01 1.97 1.87 1.89 2.00 2.17 2.18 2.25 2.32 2.39 2.33 2.40 2.17 1.80
0.39 0.30 0.26 0.24 0.27 0.23 0.17 0.21 0.15 0.11 0.13 0.14 0.15 0.15 0.18 0.20 0.17 0.13 0.11 0.08 0.09 0.10 0.11 0.14 0.20 0.40 0.74 1.08 1.34 1.59 1.94 2.05 2.03 2.07 2.06 2.08 2.10 2.06 2.13 2.15 2.25 2.27 2.28 2.37 2.48 2.43 2.54 2.58 2.20
0.30 0.21 0.18 0.16 0.18 0.16 0.11 0.15 0.15 0.13 0.18 0.23 0.24 0.24 0.24 0.22 0.17 0.14 0.12 0.10 0.11 0.11 0.14 0.20 0.34 0.53 0.78 0.99 1.24 1.60 1.86 1.99 2.14 2.09 2.07 2.08 2.15 2.17 2.20 2.27 2.42 2.40 2.37 2.34 2.56 2.61 2.69 2.61 2.52
0.18 0.16 0.15 0.15 0.16 0.18 0.09 0.16 0.24 0.22 0.21 0.22 0.23 0.23 0.23 0.22 0.18 0.18 0.16 0.16 0.16 0.19 0.25 0.33 0.49 0.64 0.85 1.02 1.22 1.41 1.67 1.82 1.97 2.07 2.02 2.03 2.10 2.20 2.10 2.02 2.16 2.22 2.25 2.24 2.41 2.58 2.71 2.69 2.71
0.11 0.18 0.27 0.28 0.32 0.25 0.11 0.21 0.35 0.26 0.20 0.19 0.20 0.22 0.24 0.25 0.27 0.31 0.31 0.35 0.41 0.45 0.48 0.56 0.66 0.76 0.87 0.97 1.07 1.13 1.31 1.48 1.54 1.72 1.81 1.94 1.96 2.02 2.05 1.95 1.95 1.98 1.93 1.97 2.08 2.14 2.22 2.36 2.51
0.08 0.14 0.29 0.35 0.30 0.24 0.20 0.38 0.42 0.29 0.23 0.23 0.23 0.26 0.29 0.37 0.43 0.53 0.61 0.70 0.76 0.76 0.74 0.81 0.86 0.85 0.83 0.88 0.94 0.97 1.04 1.13 1.22 1.27 1.32 1.51 1.68 1.72 1.80 1.80 1.75 1.79 1.83 1.84 1.91 1.92 1.92 1.95 2.02
0.07 0.09 0.14 0.22 0.19 0.19 0.23 0.43 0.45 0.32 0.31 0.31 0.32 0.34 0.42 0.61 0.71 0.82 0.91 0.92 0.93 0.91 0.86 0.87 0.89 0.86 0.84 0.84 0.84 0.80 0.80 0.87 0.98 1.01 1.09 1.16 1.26 1.28 1.34 1.44 1.51 1.61 1.66 1.72 1.85 1.91 1.90 1.86 1.83
0.06 0.10 0.18 0.32 0.41 0.37 0.35 0.49 0.52 0.44 0.40 0.37 0.41 0.50 0.66 0.93 1.07 1.20 1.27 1.17 1.10 1.09 1.13 1.02 0.93 0.86 0.82 0.82 0.82 0.76 0.73 0.78 0.82 0.83 0.90 0.89 0.91 0.94 1.00 1.11 1.28 1.50 1.62 1.66 1.73 1.78 1.86 1.89 1.84
0.11 0.17 0.26 0.42 0.49 0.62 0.73 0.85 0.69 0.59 0.59 0.67 0.76 0.83 1.02 1.29 1.44 1.53 1.54 1.43 1.23 1.10 1.10 1.04 0.93 0.82 0.72 0.71 0.76 0.76 0.71 0.73 0.78 0.77 0.73 0.67 0.70 0.78 0.89 0.95 1.09 1.24 1.43 1.61 1.75 1.77 1.76 1.80 1.78
0.23 0.37 0.51 0.80 0.77 0.69 0.89 1.09 0.84 0.69 0.71 0.74 0.81 0.92 1.11 1.24 1.31 1.35 1.30 1.29 1.18 1.09 1.00 0.96 0.85 0.71 0.65 0.70 0.73 0.75 0.67 0.62 0.65 0.66 0.68 0.59 0.56 0.62 0.71 0.84 1.05 1.16 1.25 1.30 1.38 1.46 1.49 1.51 1.56

GEFSSGP_prec_meanprecacc_144.txt.gz
Total_Precipitation_Accumulation
1.03 1.20 1.79 2.38 2.57 1.96 1.57 1.18 0.78 0.68 0.65 0.43 0.32 0.30 0.42 0.70 1.00 1.24 1.00 0.83 0.57 0.47 0.41 0.59 0.83 0.77 0.68 0.69 0.75 0.84 0.86 0.95 0.82 0.74 0.66 0.57 0.49 0.49 0.49 0.41 0.39 0.42 0.37 0.33 0.39 0.49 0.50 0.53 0.54
0.99 1.79 2.52 3.08 2.51 1.67 1.48 1.15 0.90 0.70 0.46 0.35 0.25 0.25 0.33 0.29 0.27 0.51 0.99 1.04 0.57 0.47 0.44 0.59 0.85 0.79 0.78 0.80 0.82 0.86 0.91 0.99 0.90 0.77 0.65 0.57 0.53 0.53 0.53 0.63 0.67 0.55 0.40 0.37 0.40 0.54 0.56 0.53 0.57
1.22 2.36 3.29 3.02 1.98 1.52 1.54 1.12 0.80 0.53 0.35 0.31 0.27 0.24 0.32 0.35 0.36 0.69 1.06 0.87 0.59 0.49 0.52 0.76 0.95 0.83 0.79 0.84 0.93 0.95 1.00 1.02 0.92 0.74 0.57 0.55 0.60 0.69 0.80 0.84 0.74 0.55 0.46 0.45 0.48 0.56 0.60 0.54 0.50
1.61 2.70 2.83 2.20 1.81 1.42 1.21 0.93 0.62 0.58 0.40 0.23 0.22 0.29 0.28 0.32 0.40 0.70 0.80 0.71 0.62 0.52 0.46 0.60 0.84 0.81 0.82 0.87 0.97 0.94 0.96 1.02 0.97 0.78 0.63 0.60 0.63 0.67 0.75 0.82 0.72 0.57 0.50 0.50 0.55 0.60 0.61 0.57 0.52
2.01 2.50 2.41 1.99 1.73 1.29 0.93 0.73 0.54 0.54 0.43 0.23 0.19 0.38 0.50 0.52 0.46 0.60 0.78 0.78 0.61 0.53 0.45 0.47 0.68 0.68 0.72 0.86 0.98 0.98 1.00 1.03 0.99 0.79 0.70 0.71 0.69 0.66 0.73 0.76 0.71 0.58 0.52 0.52 0.58 0.62 0.66 0.62 0.58
2.25 2.22 2.33 2.19 1.92 1.43 1.01 0.72 0.52 0.50 0.40 0.28 0.27 0.42 0.55 0.65 0.60 0.64 0.65 0.68 0.64 0.62 0.52 0.46 0.62 0.69 0.68 0.76 0.84 0.90 0.96 1.01 0.96 0.77 0.71 0.71 0.71 0.68 0.69 0.73 0.73 0.64 0.64 0.64 0.64 0.62 0.65 0.67 0.62
2.15 2.06 2.01 1.84 1.93 1.84 1.21 0.73 0.62 0.53 0.48 0.41 0.33 0.49 0.56 0.70 0.55 0.65 0.67 0.66 0.71 0.68 0.64 0.56 0.57 0.63 0.73 0.82 0.87 0.89 0.93 0.96 0.99 0.87 0.80 0.78 0.71 0.61 0.59 0.61 0.64 0.66 0.73 0.71 0.65 0.62 0.60 0.62 0.63
1.71 1.67 1.52 1.56 1.73 1.77 1.08 0.59 0.45 0.44 0.39 0.27 0.32 0.47 0.54 0.58 0.53 0.62 0.67 0.66 0.65 0.67 0.65 0.60 0.61 0.69 0.69 0.75 0.94 1.01 1.04 1.07 1.10 0.97 0.85 0.81 0.68 0.58 0.58 0.53 0.57 0.64 0.77 0.84 0.77 0.70 0.66 0.65 0.68
1.59 1.67 1.67 1.78 1.59 1.37 0.84 0.58 0.41 0.37 0.34 0.25 0.23 0.30 0.36 0.41 0.51 0.61 0.70 0.70 0.68 0.62 0.60 0.59 0.63 0.75 0.81 0.78 0.88 1.15 1.18 1.21 1.18 1.04 0.94 0.83 0.64 0.56 0.58 0.54 0.70 0.72 0.76 0.84 0.88 0.86 0.79 0.74 0.69
1.67 1.72 1.75 1.52 1.09 0.94 0.73 0.60 0.45 0.35 0.35 0.29 0.26 0.33 0.40 0.47 0.56 0.61 0.66 0.67 0.66 0.66 0.61 0.57 0.56 0.62 0.70 0.75 0.88 1.03 1.01 1.02 1.01 1.16 1.07 0.94 0.89 0.76 0.49 0.55 0.76 0.90 0.92 0.89 0.86 0.93 0.82 0.66 0.50
1.32 1.31 1.06 1.07 0.84 0.68 0.61 0.50 0.44 0.43 0.48 0.33 0.34 0.40 0.46 0.53 0.59 0.63 0.64 0.62 0.64 0.62 0.57 0.50 0.47 0.45 0.51 0.64 0.81 0.91 1.01 1.11 1.07 1.03 1.04 1.01 0.89 0.70 0.57 0.61 0.63 0.70 0.76 0.69 0.72 0.72 0.57 0.49 0.50
1.14 0.94 0.74 0.76 0.66 0.67 0.62 0.47 0.39 0.37 0.41 0.31 0.30 0.38 0.49 0.51 0.56 0.59 0.59 0.58 0.53 0.53 0.55 0.48 0.39 0.38 0.38 0.46 0.55 0.66 0.80 0.92 0.96 0.81 0.77 0.85 0.87 0.76 0.63 0.63 0.62 0.62 0.67 0.75 0.78 0.77 0.66 0.60 0.57
1.25 0.99 0.77 0.68 0.64 0.61 0.56 0.47 0.38 0.33 0.32 0.31 0.35 0.46 0.50 0.55 0.61 0.62 0.51 0.48 0.45 0.47 0.53 0.50 0.42 0.40 0.38 0.41 0.43 0.44 0.63 0.80 0.91 0.92 0.80 0.77 0.79 0.77 0.71 0.59 0.62 0.57 0.60 0.66 0.70 0.73 0.72 0.75 0.74
1.06 0.93 0.84 0.76 0.65 0.49 0.49 0.46 0.35 0.37 0.33 0.28 0.30 0.39 0.45 0.53 0.57 0.57 0.50 0.46 0.43 0.45 0.54 0.54 0.52 0.52 0.46 0.40 0.41 0.43 0.51 0.63 0.72 0.87 0.88 0.82 0.75 0.71 0.74 0.69 0.70 0.71 0.69 0.69 0.69 0.67 0.77 0.80 0.78
0.79 0.91 0.87 0.72 0.62 0.51 0.48 0.54 0.40 0.42 0.39 0.33 0.30 0.32 0.41 0.47 0.47 0.46 0.43 0.41 0.43 0.43 0.47 0.46 0.48 0.55 0.54 0.52 0.51 0.51 0.60 0.62 0.69 0.76 0.77 0.84 0.74 0.68 0.73 0.76 0.77 0.79 0.79 0.79 0.80 0.80 0.86 0.81 0.81
0.84 1.02 1.11 0.80 0.65 0.62 0.63 0.64 0.45 0.45 0.42 0.39 0.36 0.37 0.37 0.43 0.44 0.42 0.40 0.37 0.39 0.38 0.39 0.43 0.42 0.49 0.58 0.63 0.66 0.71 0.74 0.77 0.84 0.81 0.78 0.77 0.73 0.70 0.79 0.81 0.85 0.91 0.83 0.80 0.87 0.92 0.96 0.91 0.91
1.05 0.98 0.89 0.80 0.61 0.57 0.60 0.57 0.44 0.44 0.38 0.36 0.32 0.34 0.32 0.36 0.42 0.42 0.39 0.35 0.35 0.36 0.38 0.42 0.45 0.51 0.58 0.63 0.73 0.83 0.91 0.99 1.13 1.10 1.05 0.99 0.87 0.88 0.95 0.99 1.02 1.05 1.07 0.99 0.88 0.90 0.96 1.03 1.03
1.00 0.67 0.57 0.54 0.53 0.48 0.51 0.47 0.41 0.44 0.30 0.29 0.30 0.29 0.28 0.31 0.36 0.38 0.38 0.36 0.37 0.36 0.38 0.42 0.49 0.58 0.68 0.84 1.06 1.28 1.36 1.54 1.75 1.69 1.54 1.36 1.20 1.16 1.26 1.24 1.19 1.26 1.34 1.35 1.14 1.18 1.12 1.06 1.11
0.63 0.50 0.47 0.43 0.40 0.40 0.37 0.34 0.29 0.32 0.25 0.21 0.22 0.23 0.25 0.23 0.27 0.29 0.30 0.30 0.28 0.27 0.31 0.37 0.42 0.52 0.63 0.86 1.19 1.62 1.84 1.97 1.99 2.01 1.90 1.70 1.48 1.49 1.65 1.61 1.60 1.60 1.57 1.53 1.48 1.60 1.53 1.26 1.17
0.53 0.48 0.44 0.40 0.36 0.33 0.25 0.21 0.19 0.18 0.14 0.14 0.14 0.16 0.20 0.21 0.21 0.18 0.18 0.19 0.17 0.16 0.18 0.28 0.34 0.43 0.57 0.85 1.17 1.52 1.88 1.97 2.00 2.01 1.97 1.84 1.71 1.72 1.76 1.95 2.05 2.02 2.11 2.08 1.90 2.03 2.02 1.67 1.42
0.46 0.47 0.44 0.42 0.42 0.32 0.24 0.20 0.16 0.13 0.13 0.12 0.13 0.14 0.17 0.17 0.17 0.17 0.14 0.13 0.13 0.13 0.13 0.19 0.25 0.39 0.67 1.01 1.33 1.53 1.82 1.95 2.02 1.98 1.99 2.01 1.97 1.87 1.89 2.00 2.17 2.19 2.25 2.32 2.39 2.33 2.40 2.18 1.80
0.44 0.33 0.29 0.30 0.36 0.33 0.25 0.27 0.19 0.15 0.18 0.18 0.20 0.20 0.22 0.22 0.19 0.18 0.17 0.12 0.10 0.10 0.12 0.15 0.21 0.41 0.74 1.09 1.35 1.59 1.94 2.05 2.03 2.07 2.06 2.08 2.10 2.06 2.13 2.15 2.25 2.27 2.29 2.38 2.48 2.44 2.54 2.59 2.21
0.34 0.24 0.22 0.22 0.26 0.27 0.18 0.21 0.22 0.19 0.22 0.28 0.28 0.27 0.27 0.25 0.19 0.17 0.15 0.13 0.12 0.12 0.14 0.20 0.34 0.53 0.79 0.99 1.24 1.60 1.86 1.99 2.14 2.09 2.07 2.08 2.15 2.17 2.20 2.27 2.42 2.40 2.37 2.35 2.56 2.62 2.69 2.61 2.52
0.20 0.19 0.21 0.22 0.23 0.25 0.13 0.19 0.30 0.27 0.23 0.25 0.25 0.25 0.25 0.23 0.20 0.19 0.18 0.17 0.17 0.20 0.25 0.34 0.50 0.65 0.85 1.02 1.22 1.41 1.68 1.83 1.97 2.08 2.02 2.03 2.10 2.20 2.10 2.02 2.16 2.22 2.25 2.24 2.41 2.58 2.71 2.69 2.71
0.14 0.24 0.35 0.35 0.38 0.31 0.16 0.25 0.39 0.29 0.22 0.22 0.22 0.23 0.24 0.26 0.27 0.31 0.32 0.35 0.41 0.45 0.48 0.57 0.66 0.77 0.88 0.97 1.07 1.14 1.31 1.48 1.54 1.72 1.81 1.94 1.96 2.02 2.05 1.95 1.95 1.98 1.93 1.97 2.08 2.14 2.22 2.36 2.51
0.11 0.20 0.35 0.39 0.35 0.31 0.27 0.44 0.47 0.32 0.25 0.24 0.25 0.27 0.30 0.39 0.45 0.54 0.62 0.70 0.76 0.76 0.74 0.81 0.87 0.85 0.83 0.88 0.94 0.97 1.04 1.13 1.22 1.27 1.32 1.51 1.68 1.72 1.80 1.80 1.75 1.79 1.83 1.84 1.91 1.92 1.92 1.95 2.02
0.10 0.14 0.19 0.27 0.23 0.23 0.27 0.48 0.48 0.35 0.33 0.32 0.33 0.36 0.44 0.64 0.74 0.84 0.92 0.93 0.93 0.91 0.86 0.87 0.89 0.87 0.84 0.85 0.84 0.80 0.80 0.87 0.98 1.01 1.09 1.16 1.26 1.28 1.34 1.44 1.51 1.61 1.66 1.72 1.85 1.91 1.90 1.86 1.83
0.09 0.14 0.21 0.39 0.48 0.42 0.39 0.53 0.56 0.48 0.41 0.38 0.43 0.51 0.68 0.95 1.09 1.22 1.29 1.19 1.10 1.10 1.14 1.02 0.93 0.86 0.83 0.83 0.82 0.76 0.73 0.78 0.82 0.83 0.90 0.89 0.91 0.94 1.00 1.11 1.28 1.50 1.62 1.66 1.73 1.78 1.86 1.89 1.85
0.13 0.21 0.31 0.48 0.57 0.70 0.78 0.88 0.71 0.61 0.61 0.68 0.78 0.85 1.06 1.33 1.47 1.56 1.57 1.45 1.24 1.11 1.10 1.04 0.93 0.82 0.72 0.71 0.76 0.76 0.71 0.73 0.78 0.77 0.73 0.67 0.70 0.78 0.89 0.95 1.09 1.24 1.43 1.61 1.76 1.77 1.76 1.80 1.78
0.24 0.40 0.55 0.86 0.85 0.74 0.91 1.11 0.85 0.70 0.72 0.76 0.82 0.95 1.16 1.28 1.34 1.37 1.32 1.30 1.18 1.09 1.00 0.96 0.85 0.71 0.65 0.70 0.73 0.75 0.67 0.62 0.65 0.66 0.68 0.59 0.56 0.62 0.71 0.84 1.05 1.16 1.25 1.30 1.38 1.46 1.49 1.51 1.56

GEFSSGP_prec_meanprecacc_150.txt.gz
Total_Precipitation_Accumulation
1.11 1.25 1.82 2.43 2.62 1.98 1.58 1.19 0.81 0.74 0.70 0.48 0.38 0.36 0.50 0.77 1.03 1.25 1.02 0.84 0.59 0.49 0.46 0.69 0.99 0.87 0.78 0.76 0.81 0.92 0.95 1.03 0.89 0.81 0.72 0.62 0.52 0.51 0.50 0.42 0.41 0.44 0.39 0.35 0.40 0.51 0.52 0.55 0.56
1.02 1.83 2.56 3.11 2.53 1.68 1.49 1.16 0.93 0.74 0.50 0.39 0.29 0.30 0.40 0.35 0.30 0.53 1.01 1.06 0.59 0.48 0.46 0.63 0.97 0.89 0.86 0.87 0.90 0.93 0.96 1.04 0.95 0.82 0.71 0.61 0.56 0.55 0.55 0.65 0.70 0.56 0.41 0.38 0.41 0.54 0.57 0.54 0.58
1.26 2.41 3.34 3.05 2.00 1.53 1.55 1.14 0.84 0.57 0.39 0.36 0.32 0.30 0.38 0.40 0.40 0.72 1.08 0.89 0.61 0.51 0.56 0.81 1.03 0.91 0.84 0.89 0.98 1.00 1.03 1.05 0.95 0.78 0.62 0.60 0.64 0.72 0.82 0.86 0.76 0.57 0.48 0.47 0.50 0.57 0.61 0.55 0.51
1.66 2.76 2.88 2.23 1.83 1.43 1.23 0.95 0.66 0.64 0.47 0.30 0.27 0.34 0.33 0.37 0.45 0.72 0.81 0.72 0.63 0.56 0.50 0.66 0.91 0.88 0.87 0.91 0.99 0.96 0.98 1.04 1.00 0.81 0.66 0.63 0.66 0.69 0.77 0.85 0.74 0.59 0.52 0.52 0.57 0.62 0.63 0.59 0.54
2.08 2.57 2.45 2.02 1.76 1.33 0.96 0.77 0.60 0.61 0.55 0.34 0.25 0.43 0.54 0.57 0.51 0.64 0.79 0.79 0.62 0.56 0.48 0.51 0.73 0.73 0.75 0.88 1.00 1.00 1.01 1.04 1.01 0.81 0.72 0.73 0.71 0.68 0.74 0.77 0.73 0.60 0.53 0.53 0.59 0.63 0.67 0.63 0.58
2.32 2.29 2.38 2.24 1.98 1.50 1.08 0.80 0.60 0.57 0.51 0.35 0.32 0.46 0.60 0.72 0.66 0.71 0.68 0.70 0.66 0.63 0.53 0.48 0.66 0.71 0.70 0.78 0.86 0.92 0.98 1.02 0.97 0.78 0.72 0.71 0.72 0.69 0.70 0.73 0.73 0.64 0.65 0.65 0.65 0.63 0.66 0.68 0.63
2.21 2.09 2.04 1.88 1.99 1.92 1.31 0.82 0.71 0.59 0.54 0.45 0.37 0.54 0.61 0.77 0.62 0.70 0.72 0.68 0.74 0.70 0.65 0.57 0.59 0.65 0.75 0.84 0.88 0.91 0.94 0.96 1.00 0.88 0.80 0.78 0.71 0.61 0.59 0.61 0.64 0.67 0.74 0.72 0.66 0.62 0.60 0.63 0.63
1.78 1.72 1.55 1.59 1.78 1.86 1.18 0.69 0.54 0.53 0.47 0.31 0.37 0.52 0.58 0.63 0.61 0.72 0.75 0.71 0.70 0.70 0.68 0.61 0.63 0.70 0.69 0.76 0.95 1.03 1.05 1.07 1.10 0.97 0.85 0.81 0.68 0.59 0.58 0.53 0.57 0.65 0.78 0.85 0.78 0.71 0.66 0.66 0.69
1.64 1.71 1.70 1.82 1.63 1.43 0.89 0.67 0.56 0.49 0.43 0.31 0.30 0.35 0.40 0.45 0.58 0.71 0.78 0.75 0.71 0.65 0.62 0.59 0.64 0.75 0.81 0.78 0.88 1.15 1.18 1.21 1.18 1.04 0.94 0.83 0.64 0.56 0.58 0.54 0.71 0.73 0.77 0.85 0.88 0.87 0.80 0.75 0.69
1.70 1.75 1.77 1.55 1.12 0.98 0.77 0.68 0.59 0.46 0.44 0.39 0.35 0.39 0.45 0.52 0.62 0.69 0.70 0.68 0.67 0.68 0.63 0.57 0.58 0.62 0.71 0.76 0.88 1.03 1.01 1.02 1.01 1.16 1.07 0.94 0.89 0.76 0.49 0.55 0.76 0.91 0.93 0.89 0.86 0.94 0.83 0.66 0.51
1.34 1.33 1.08 1.11 0.87 0.72 0.66 0.57 0.53 0.53 0.55 0.39 0.40 0.46 0.51 0.57 0.63 0.67 0.69 0.64 0.64 0.62 0.58 0.51 0.48 0.46 0.51 0.64 0.81 0.91 1.01 1.11 1.07 1.03 1.04 1.01 0.89 0.70 0.57 0.61 0.63 0.70 0.76 0.69 0.72 0.72 0.57 0.49 0.50
1.17 0.98 0.78 0.81 0.70 0.72 0.68 0.53 0.45 0.44 0.46 0.36 0.36 0.42 0.53 0.55 0.59 0.62 0.62 0.61 0.54 0.54 0.55 0.49 0.40 0.38 0.38 0.46 0.55 0.66 0.80 0.92 0.96 0.81 0.77 0.85 0.87 0.76 0.63 0.63 0.62 0.62 0.67 0.75 0.78 0.77 0.66 0.60 0.57
1.28 1.03 0.82 0.73 0.68 0.66 0.63 0.55 0.45 0.38 0.35 0.35 0.41 0.51 0.55 0.58 0.63 0.64 0.53 0.50 0.46 0.48 0.53 0.50 0.42 0.40 0.38 0.41 0.43 0.44 0.63 0.80 0.91 0.92 0.80 0.77 0.79 0.77 0.71 0.59 0.62 0.57 0.60 0.66 0.70 0.73 0.72 0.76 0.75
1.09 0.96 0.90 0.84 0.71 0.55 0.58 0.56 0.42 0.43 0.38 0.34 0.37 0.44 0.50 0.58 0.59 0.59 0.52 0.48 0.44 0.45 0.54 0.54 0.52 0.52 0.47 0.41 0.41 0.43 0.51 0.63 0.72 0.87 0.88 0.82 0.75 0.71 0.74 0.69 0.70 0.71 0.69 0.69 0.69 0.67 0.77 0.81 0.79
0.83 0.96 0.95 0.83 0.73 0.61 0.56 0.65 0.51 0.49 0.46 0.42 0.37 0.37 0.44 0.50 0.50 0.49 0.46 0.44 0.43 0.43 0.47 0.46 0.48 0.55 0.55 0.53 0.52 0.52 0.60 0.62 0.69 0.76 0.77 0.84 0.75 0.68 0.74 0.76 0.77 0.79 0.79 0.79 0.80 0.80 0.86 0.82 0.82
0.89 1.07 1.18 0.91 0.77 0.73 0.71 0.75 0.58 0.55 0.51 0.47 0.42 0.41 0.41 0.46 0.46 0.45 0.43 0.40 0.40 0.39 0.39 0.44 0.43 0.50 0.58 0.63 0.66 0.71 0.74 0.77 0.84 0.81 0.78 0.77 0.73 0.71 0.79 0.81 0.85 0.91 0.83 0.80 0.87 0.92 0.96 0.92 0.92
1.10 1.03 0.96 0.89 0.71 0.68 0.70 0.68 0.56 0.56 0.46 0.41 0.37 0.38 0.35 0.39 0.45 0.44 0.42 0.38 0.37 0.37 0.38 0.43 0.45 0.52 0.58 0.64 0.74 0.83 0.91 0.99 1.13 1.10 1.05 0.99 0.87 0.88 0.96 0.99 1.03 1.05 1.07 0.99 0.88 0.90 0.97 1.03 1.04
1.04 0.71 0.62 0.62 0.63 0.57 0.59 0.55 0.49 0.54 0.39 0.34 0.33 0.32 0.30 0.33 0.39 0.40 0.42 0.40 0.39 0.38 0.39 0.43 0.50 0.59 0.70 0.85 1.06 1.28 1.36 1.54 1.75 1.69 1.54 1.36 1.20 1.16 1.26 1.24 1.19 1.26 1.34 1.35 1.14 1.18 1.12 1.07 1.12
0.65 0.52 0.51 0.48 0.47 0.45 0.41 0.39 0.35 0.38 0.31 0.26 0.26 0.26 0.27 0.26 0.29 0.32 0.35 0.35 0.31 0.29 0.32 0.38 0.43 0.53 0.64 0.86 1.19 1.62 1.84 1.97 1.99 2.01 1.90 1.70 1.48 1.49 1.65 1.61 1.60 1.60 1.58 1.54 1.48 1.60 1.53 1.26 1.17
0.55 0.50 0.47 0.46 0.42 0.38 0.28 0.24 0.25 0.23 0.18 0.17 0.18 0.19 0.22 0.23 0.23 0.21 0.22 0.25 0.21 0.18 0.19 0.28 0.34 0.43 0.57 0.85 1.18 1.53 1.89 1.97 2.00 2.01 1.97 1.84 1.71 1.72 1.76 1.95 2.05 2.02 2.11 2.09 1.90 2.03 2.03 1.67 1.42
0.48 0.49 0.47 0.48 0.47 0.36 0.28 0.24 0.22 0.17 0.15 0.15 0.15 0.16 0.20 0.20 0.20 0.20 0.18 0.17 0.17 0.15 0.14 0.19 0.25 0.39 0.67 1.01 1.34 1.53 1.83 1.95 2.02 1.98 1.99 2.01 1.97 1.88 1.89 2.00 2.17 2.19 2.25 2.32 2.39 2.33 2.40 2.18 1.81
0.46 0.35 0.31 0.34 0.42 0.39 0.29 0.31 0.24 0.18 0.20 0.21 0.21 0.21 0.24 0.25 0.21 0.20 0.20 0.16 0.13 0.13 0.12 0.15 0.22 0.41 0.75 1.09 1.35 1.59 1.94 2.06 2.04 2.07 2.06 2.08 2.10 2.07 2.13 2.15 2.25 2.27 2.29 2.38 2.48 2.44 2.55 2.59 2.21
0.36 0.28 0.26 0.26 0.30 0.31 0.21 0.23 0.25 0.21 0.24 0.30 0.30 0.29 0.29 0.26 0.21 0.18 0.16 0.16 0.14 0.14 0.15 0.21 0.35 0.54 0.80 1.01 1.25 1.61 1.87 1.99 2.15 2.09 2.07 2.08 2.15 2.17 2.20 2.27 2.42 2.41 2.38 2.35 2.56 2.62 2.69 2.61 2.52
0.23 0.25 0.27 0.26 0.26 0.27 0.14 0.20 0.31 0.28 0.24 0.26 0.27 0.26 0.26 0.24 0.22 0.21 0.19 0.18 0.19 0.21 0.26 0.34 0.50 0.66 0.87 1.04 1.23 1.42 1.68 1.83 1.98 2.08 2.02 2.03 2.10 2.20 2.10 2.02 2.16 2.22 2.25 2.24 2.41 2.59 2.71 2.70 2.71
0.19 0.29 0.40 0.39 0.42 0.33 0.17 0.26 0.40 0.30 0.22 0.22 0.23 0.24 0.25 0.26 0.28 0.33 0.33 0.36 0.42 0.46 0.49 0.57 0.67 0.78 0.89 0.98 1.08 1.14 1.31 1.48 1.55 1.72 1.81 1.95 1.97 2.02 2.05 1.95 1.95 1.98 1.93 1.97 2.08 2.14 2.22 2.36 2.51
0.14 0.23 0.38 0.42 0.37 0.32 0.28 0.44 0.48 0.32 0.25 0.25 0.25 0.28 0.31 0.39 0.45 0.55 0.63 0.71 0.77 0.76 0.75 0.81 0.87 0.85 0.85 0.90 0.96 0.98 1.05 1.13 1.22 1.27 1.32 1.51 1.68 1.72 1.80 1.80 1.75 1.79 1.83 1.84 1.91 1.92 1.92 1.95 2.02
0.12 0.15 0.21 0.28 0.24 0.24 0.28 0.48 0.48 0.35 0.33 0.33 0.34 0.36 0.45 0.64 0.74 0.84 0.93 0.94 0.94 0.91 0.86 0.87 0.90 0.87 0.85 0.86 0.85 0.81 0.80 0.87 0.98 1.01 1.09 1.16 1.26 1.28 1.34 1.44 1.51 1.61 1.66 1.72 1.85 1.91 1.90 1.86 1.83
0.11 0.16 0.23 0.40 0.49 0.43 0.39 0.53 0.56 0.48 0.41 0.39 0.43 0.52 0.68 0.95 1.09 1.22 1.30 1.20 1.11 1.10 1.14 1.03 0.93 0.86 0.83 0.84 0.83 0.77 0.73 0.78 0.82 0.83 0.90 0.89 0.91 0.94 1.00 1.11 1.28 1.50 1.62 1.66 1.73 1.78 1.86 1.89 1.85
0.14 0.22 0.32 0.50 0.58 0.71 0.79 0.89 0.72 0.62 0.61 0.69 0.78 0.86 1.07 1.33 1.48 1.57 1.58 1.46 1.25 1.12 1.11 1.05 0.94 0.82 0.72 0.71 0.77 0.77 0.72 0.73 0.78 0.77 0.73 0.67 0.70 0.78 0.89 0.95 1.09 1.25 1.43 1.61 1.76 1.77 1.76 1.80 1.78
0.26 0.41 0.56 0.87 0.86 0.75 0.92 1.11 0.85 0.71 0.73 0.77 0.83 0.96 1.16 1.30 1.36 1.39 1.33 1.31 1.20 1.11 1.02 0.96 0.86 0.72 0.67 0.71 0.73 0.75 0.67 0.62 0.65 0.66 0.68 0.59 0.56 0.62 0.71 0.84 1.05 1.16 1.25 1.30 1.38 1.46 1.49 1.52 1.56

GEFSSGP_prec_meanprecacc_156.txt.gz
Total_Precipitation_Accumulation
1.14 1.26 1.83 2.44 2.65 2.02 1.60 1.21 0.83 0.77 0.75 0.51 0.40 0.39 0.53 0.80 1.06 1.29 1.05 0.87 0.62 0.52 0.50 0.76 1.11 1.01 0.91 0.86 0.91 1.02 1.06 1.13 0.98 0.89 0.78 0.68 0.59 0.57 0.56 0.47 0.44 0.49 0.42 0.38 0.43 0.54 0.55 0.57 0.59
1.04 1.83 2.57 3.13 2.55 1.71 1.51 1.17 0.95 0.77 0.54 0.41 0.32 0.33 0.43 0.39 0.32 0.54 1.04 1.09 0.63 0.51 0.50 0.69 1.10 1.01 0.98 0.98 1.01 1.05 1.06 1.13 1.02 0.88 0.76 0.66 0.62 0.62 0.61 0.71 0.76 0.63 0.45 0.41 0.43 0.56 0.59 0.55 0.60
1.27 2.43 3.36 3.07 2.02 1.56 1.58 1.15 0.85 0.59 0.42 0.38 0.36 0.34 0.42 0.47 0.44 0.74 1.10 0.91 0.64 0.54 0.60 0.88 1.13 1.00 0.95 1.00 1.08 1.08 1.10 1.12 1.01 0.83 0.68 0.65 0.69 0.79 0.87 0.91 0.82 0.63 0.52 0.49 0.52 0.59 0.62 0.56 0.52
1.67 2.78 2.89 2.25 1.85 1.45 1.24 0.97 0.68 0.66 0.50 0.34 0.32 0.39 0.37 0.42 0.49 0.74 0.84 0.74 0.66 0.60 0.55 0.74 1.00 0.97 0.95 0.99 1.07 1.03 1.04 1.09 1.05 0.85 0.71 0.69 0.71 0.73 0.80 0.87 0.78 0.63 0.56 0.53 0.59 0.64 0.64 0.59 0.55
2.09 2.59 2.48 2.04 1.78 1.35 0.98 0.79 0.63 0.65 0.61 0.40 0.30 0.47 0.58 0.63 0.59 0.69 0.82 0.81 0.64 0.59 0.53 0.59 0.81 0.81 0.81 0.94 1.05 1.05 1.05 1.08 1.04 0.84 0.75 0.76 0.74 0.69 0.76 0.79 0.74 0.61 0.55 0.55 0.61 0.64 0.68 0.64 0.59
2.34 2.31 2.41 2.27 2.01 1.53 1.11 0.82 0.62 0.60 0.55 0.40 0.36 0.50 0.65 0.80 0.75 0.78 0.71 0.75 0.70 0.66 0.57 0.52 0.72 0.78 0.76 0.83 0.90 0.96 1.01 1.05 0.99 0.80 0.73 0.73 0.73 0.70 0.71 0.75 0.75 0.66 0.66 0.67 0.66 0.64 0.66 0.68 0.63
2.23 2.12 2.06 1.90 2.02 1.95 1.35 0.85 0.75 0.63 0.59 0.49 0.41 0.58 0.66 0.86 0.74 0.78 0.77 0.74 0.81 0.75 0.69 0.61 0.64 0.69 0.79 0.88 0.91 0.94 0.97 0.99 1.01 0.89 0.81 0.79 0.71 0.62 0.60 0.62 0.65 0.68 0.76 0.73 0.67 0.63 0.61 0.63 0.65
1.81 1.75 1.57 1.61 1.80 1.89 1.20 0.71 0.57 0.57 0.52 0.34 0.40 0.56 0.64 0.71 0.72 0.81 0.81 0.75 0.75 0.76 0.74 0.65 0.67 0.73 0.71 0.78 0.97 1.04 1.06 1.08 1.11 0.98 0.86 0.82 0.68 0.59 0.58 0.53 0.57 0.65 0.78 0.86 0.79 0.71 0.67 0.67 0.70
1.67 1.75 1.73 1.85 1.67 1.47 0.91 0.70 0.58 0.53 0.49 0.36 0.34 0.39 0.46 0.51 0.66 0.80 0.84 0.78 0.75 0.70 0.67 0.64 0.67 0.77 0.82 0.79 0.89 1.17 1.19 1.22 1.19 1.05 0.94 0.83 0.64 0.56 0.58 0.54 0.71 0.73 0.77 0.86 0.89 0.88 0.81 0.76 0.71
1.73 1.78 1.79 1.56 1.14 1.00 0.78 0.70 0.62 0.51 0.49 0.44 0.40 0.44 0.50 0.59 0.68 0.76 0.76 0.71 0.70 0.71 0.67 0.61 0.60 0.64 0.71 0.77 0.89 1.05 1.03 1.04 1.02 1.16 1.07 0.94 0.89 0.76 0.49 0.55 0.77 0.91 0.93 0.90 0.87 0.95 0.83 0.67 0.51
1.36 1.36 1.11 1.13 0.89 0.74 0.69 0.60 0.56 0.55 0.58 0.42 0.45 0.52 0.59 0.64 0.67 0.73 0.75 0.67 0.66 0.65 0.61 0.53 0.50 0.47 0.52 0.65 0.82 0.92 1.02 1.12 1.08 1.04 1.04 1.01 0.89 0.70 0.57 0.62 0.64 0.70 0.76 0.69 0.72 0.72 0.57 0.49 0.51
1.19 1.00 0.80 0.84 0.72 0.74 0.71 0.56 0.48 0.46 0.50 0.38 0.39 0.48 0.62 0.62 0.64 0.67 0.67 0.63 0.55 0.55 0.56 0.51 0.41 0.39 0.39 0.46 0.55 0.67 0.80 0.92 0.96 0.81 0.77 0.85 0.87 0.76 0.63 0.63 0.62 0.62 0.67 0.76 0.79 0.77 0.67 0.60 0.58
1.31 1.06 0.84 0.78 0.74 0.69 0.66 0.59 0.48 0.41 0.39 0.40 0.45 0.55 0.60 0.65 0.69 0.69 0.57 0.53 0.47 0.49 0.54 0.52 0.44 0.41 0.39 0.41 0.43 0.44 0.63 0.80 0.91 0.92 0.80 0.77 0.79 0.77 0.71 0.59 0.62 0.57 0.60 0.67 0.70 0.73 0.73 0.77 0.76
1.12 0.99 0.93 0.88 0.77 0.60 0.62 0.60 0.46 0.48 0.42 0.41 0.43 0.47 0.52 0.63 0.66 0.62 0.54 0.50 0.45 0.46 0.55 0.55 0.54 0.53 0.48 0.41 0.41 0.43 0.51 0.63 0.72 0.87 0.88 0.82 0.75 0.71 0.74 0.69 0.70 0.71 0.69 0.69 0.69 0.67 0.78 0.82 0.80
0.86 1.00 0.99 0.87 0.78 0.67 0.62 0.71 0.56 0.56 0.53 0.51 0.44 0.41 0.46 0.54 0.56 0.53 0.47 0.45 0.44 0.44 0.48 0.48 0.50 0.57 0.56 0.54 0.52 0.52 0.60 0.63 0.69 0.76 0.77 0.84 0.75 0.68 0.74 0.77 0.77 0.79 0.80 0.79 0.80 0.80 0.86 0.83 0.84
0.93 1.13 1.25 0.98 0.83 0.79 0.78 0.82 0.64 0.65 0.62 0.58 0.50 0.47 0.46 0.50 0.51 0.50 0.47 0.42 0.41 0.40 0.40 0.45 0.44 0.51 0.60 0.64 0.66 0.71 0.74 0.77 0.84 0.81 0.78 0.78 0.73 0.71 0.79 0.81 0.85 0.92 0.84 0.80 0.87 0.92 0.97 0.92 0.94
1.15 1.10 1.03 0.97 0.78 0.74 0.76 0.73 0.63 0.67 0.59 0.50 0.44 0.43 0.40 0.43 0.48 0.47 0.46 0.40 0.38 0.38 0.40 0.44 0.46 0.52 0.59 0.64 0.74 0.83 0.91 1.00 1.13 1.10 1.06 0.99 0.87 0.88 0.96 1.00 1.03 1.06 1.07 0.99 0.89 0.91 0.97 1.04 1.05
1.07 0.75 0.66 0.70 0.73 0.65 0.66 0.61 0.56 0.62 0.47 0.41 0.40 0.37 0.33 0.36 0.41 0.42 0.45 0.42 0.41 0.39 0.41 0.44 0.51 0.59 0.70 0.85 1.06 1.28 1.36 1.54 1.75 1.70 1.54 1.36 1.20 1.16 1.26 1.24 1.20 1.26 1.35 1.36 1.15 1.19 1.13 1.08 1.14
0.66 0.55 0.53 0.51 0.52 0.53 0.49 0.46 0.44 0.43 0.37 0.32 0.31 0.30 0.30 0.27 0.31 0.33 0.37 0.37 0.33 0.31 0.34 0.39 0.43 0.53 0.64 0.86 1.19 1.62 1.84 1.97 1.99 2.01 1.91 1.70 1.48 1.50 1.66 1.62 1.60 1.61 1.59 1.55 1.48 1.61 1.54 1.27 1.19
0.56 0.52 0.50 0.48 0.45 0.45 0.35 0.30 0.31 0.29 0.22 0.21 0.22 0.21 0.24 0.24 0.26 0.22 0.23 0.26 0.23 0.20 0.20 0.29 0.34 0.43 0.57 0.85 1.18 1.53 1.89 1.97 2.00 2.01 1.97 1.84 1.72 1.72 1.76 1.96 2.06 2.04 2.13 2.10 1.91 2.04 2.03 1.68 1.43
0.50 0.51 0.49 0.50 0.50 0.43 0.35 0.30 0.29 0.23 0.20 0.19 0.18 0.18 0.22 0.21 0.22 0.21 0.19 0.18 0.19 0.17 0.15 0.20 0.25 0.39 0.68 1.02 1.34 1.53 1.83 1.96 2.02 1.99 2.00 2.02 1.97 1.88 1.90 2.01 2.17 2.20 2.26 2.34 2.41 2.34 2.42 2.20 1.82
0.48 0.36 0.33 0.36 0.46 0.46 0.35 0.37 0.30 0.24 0.25 0.24 0.23 0.23 0.26 0.26 0.22 0.20 0.20 0.17 0.15 0.15 0.14 0.16 0.23 0.42 0.75 1.10 1.35 1.59 1.94 2.06 2.04 2.07 2.07 2.08 2.10 2.07 2.13 2.15 2.25 2.28 2.30 2.39 2.49 2.44 2.56 2.61 2.23
0.38 0.30 0.28 0.28 0.35 0.36 0.26 0.28 0.29 0.26 0.29 0.33 0.31 0.30 0.31 0.28 0.22 0.19 0.17 0.16 0.15 0.16 0.17 0.22 0.36 0.55 0.80 1.01 1.26 1.62 1.87 1.99 2.15 2.09 2.07 2.08 2.15 2.18 2.21 2.28 2.43 2.42 2.39 2.36 2.57 2.62 2.70 2.62 2.53
0.25 0.30 0.31 0.29 0.31 0.32 0.18 0.24 0.34 0.31 0.27 0.28 0.27 0.26 0.27 0.25 0.22 0.22 0.19 0.18 0.20 0.23 0.28 0.36 0.51 0.66 0.87 1.04 1.24 1.43 1.68 1.83 1.98 2.08 2.02 2.03 2.10 2.20 2.10 2.03 2.16 2.23 2.26 2.25 2.42 2.60 2.72 2.71 2.72
0.22 0.34 0.46 0.44 0.46 0.37 0.19 0.28 0.42 0.31 0.24 0.24 0.24 0.24 0.26 0.27 0.28 0.34 0.34 0.36 0.43 0.48 0.50 0.59 0.68 0.78 0.90 0.99 1.08 1.16 1.32 1.49 1.55 1.72 1.81 1.95 1.97 2.02 2.05 1.95 1.95 1.98 1.93 1.97 2.08 2.15 2.23 2.37 2.52
0.17 0.27 0.43 0.46 0.40 0.35 0.30 0.46 0.49 0.33 0.27 0.26 0.26 0.28 0.32 0.39 0.45 0.56 0.64 0.71 0.77 0.78 0.76 0.83 0.88 0.86 0.85 0.90 0.97 0.99 1.06 1.14 1.22 1.27 1.32 1.51 1.68 1.72 1.80 1.80 1.75 1.79 1.83 1.84 1.91 1.92 1.93 1.96 2.03
0.15 0.19 0.24 0.32 0.27 0.27 0.30 0.49 0.49 0.36 0.34 0.34 0.34 0.37 0.45 0.64 0.74 0.85 0.93 0.95 0.94 0.92 0.87 0.88 0.91 0.87 0.86 0.87 0.86 0.82 0.81 0.88 0.98 1.01 1.09 1.16 1.26 1.28 1.34 1.44 1.51 1.61 1.66 1.72 1.85 1.91 1.91 1.86 1.84
0.14 0.20 0.27 0.44 0.52 0.45 0.41 0.55 0.57 0.49 0.42 0.39 0.44 0.52 0.69 0.95 1.09 1.22 1.30 1.21 1.12 1.11 1.15 1.03 0.94 0.86 0.83 0.84 0.83 0.77 0.73 0.79 0.83 0.83 0.90 0.89 0.91 0.94 1.00 1.11 1.28 1.50 1.62 1.66 1.73 1.78 1.86 1.90 1.85
0.17 0.25 0.34 0.52 0.60 0.73 0.80 0.90 0.72 0.62 0.61 0.69 0.79 0.86 1.07 1.33 1.48 1.57 1.58 1.47 1.26 1.12 1.11 1.05 0.94 0.82 0.72 0.71 0.77 0.77 0.72 0.73 0.78 0.78 0.73 0.67 0.70 0.78 0.89 0.95 1.09 1.25 1.43 1.61 1.76 1.77 1.76 1.80 1.78
0.27 0.42 0.57 0.89 0.87 0.76 0.92 1.12 0.85 0.71 0.73 0.77 0.83 0.96 1.17 1.30 1.36 1.39 1.34 1.32 1.21 1.12 1.02 0.97 0.86 0.72 0.67 0.71 0.74 0.76 0.68 0.62 0.65 0.66 0.68 0.59 0.56 0.62 0.71 0.84 1.05 1.16 1.25 1.30 1.38 1.46 1.50 1.52 1.57